SCOUT A DEB, 2226

Orbit data source: Space-Track

SCOUT A DEB, 2226 is space debris in LEO originally from a launch on Wed, 22 Dec 1965 UTC launched from the Air Force Western Test Range (AFWTR). Debris objects in space refer to the collection of defunct objects orbiting the Earth. Examples of debris include non-operational satellites, rocket bodies, and fragments generated from explosions, collisions, or faulty payload assembly.

Loading next visibility...
Identifier
2226, 1965-109D
Orbit
LEO
Last TLE update
17 hours ago
Origin
Manufacturer
Unknown
Mission
Spacecraft
Bus & Motor
Unknown
Mass
Unknown
Launch date (UTC)
1965-12-22 (60 years ago)
Launch vehicle
Unknown
Launch site
Air Force Western Test Range (AFWTR)
Object type
Payload
Rocket body
Debris
Shape & HBR
Unknown
Radar Cross Section
Small (<0.1 m²)

Expand to show TLE details & history

TLE from 17 hours ago
0 SCOUT A DEB
1  2226U 65109D   25172.91728717  .00000126  00000-0  14608-3 0  9993
2  2226  89.0656 341.0804 0247674   6.9398 353.5078 13.51152352905433
Epoch: 2025-06-21T22:00Z
TLE epoch observation values (Epoch: 2025-06-21T22:00:53.611Z)
Latitude
-0.00009°
Longitude
100.50763°
Altitude
887.762 km
Speed
7.499 km/s
True Right ascension
22h 44m 19s
True Declination
0° 00' 00"
Sunlit
Object was in daylight at epoch
Visualization orbit readout
Latitude
-24.18843°
Longitude
-79.14167°
Altitude
1,250.937 km
Speed
7.144 km/s
Apparent Right ascension
12h 06m 51s
Apparent Declination
-33° 38' 05"
Sunlit
Object is in daylight
Visualization observer readout
Local Sidereal Time
02:04:55
Azimuth
84.422° E
Elevation
-65.659°
Doppler factor
1
Orbital elements
Apogee altitude
1,249.418 km
Perigee altitude
880.721 km
Semi-major axis
7,443.207 km
Eccentricity
0.02477
Inclination
89.0656°
RAAN
341.0804°
Arg. of periapsis
6.9398°
True anomaly
Unknown
Mean anomaly
353.5078°
Eccentric anomaly
Unknown
Mean motion
3.37989 °/min
Orbital period
106.51 mins
BSTAR
0.00014608
Loading maneuver chart data...
Loading SW <> Apogee altitude chart data...
Loading historical data...
Loading historical data...
Loading historical data...
Loading historical data...
Loading historical data...
Loading historical data...
Loading historical data...

SCOUT A DEB Visibility forecast

Observer location: undefined°, undefined°

Span
Click to sort rows by Start time (UTC) header in descending order
Start Az.
Max El. time (UTC)
Max El. Az.
Max El.
End time (UTC)
End Az.
7 mins2025-06-22 21:44:12.676Z47.702° ENE2025-06-22 21:47:12.676Z74.184° E14.592°2025-06-22 21:51:12.676Z107.747° ESE
12 mins2025-06-22 23:29:12.676Z1.634° NNE2025-06-22 23:34:12.676Z10.704° NNE44.692°2025-06-22 23:41:12.676Z182.393° SSW
6 mins2025-06-23 01:18:12.676Z307.191° NW2025-06-23 01:20:12.676Z288.47° WNW15.464°2025-06-23 01:24:12.676Z254.771° W
10 mins2025-06-23 11:27:12.676Z170.365° S2025-06-23 11:31:12.676Z121.676° SE44.002°2025-06-23 11:37:12.676Z2.15° NNE
|